Flag for Germany Weather past 2 weeks in Lübeck, Schleswig-Holstein, Germany

Now
66 °F

Broken clouds.


Feels Like: 66 °F
Forecast: 56 / 69 °F
Wind: 2 mph from North

Location: Luebeck-Blankensee

Current Time: Oct 2, 2014 at 2:53:57 PM

Latest Report: Oct 2, 2014 at 2:20 PM


Visibility: N/A

Pressure: 30.39 "Hg

Humidity: 78%

Dew point: 59 °F

Location of LübeckLocation

Historic Weather in Lübeck — Graph

°F

Lübeck temperature yesterday

Maximum temperature yesterday: 68 °F (at 2:20 PM)
Minimum temperature yesterday: 57 °F (at 6:50 AM)
Average temperature yesterday: 61 °F

Past Weeks' High & Low Weather Summary

 TemperatureHumidityPressure
High75 °F (Sep 18, 2:50 PM)100% (Sep 19, 6:50 AM)30.39 "Hg (Sep 19, 6:50 AM)
Low46 °F (Sep 23, 6:50 AM)42% (Sep 23, 2:20 PM)29.74 "Hg (Sep 24, 5:20 PM)
Average61 °F77%30.06 "Hg
* Reported Sep 17 1:20 PM — Oct 2 1:50 PM, Lübeck, Weather by CustomWeather, © 2014

Note: Actual official high and low records may vary slightly from our data, if they occured in-between our weather recording intervals... More about our weather records

Advertising

Lübeck weather history for previous 24 hours

 ConditionsComfort  
Time TempWeatherWind HumidityBarometerVisibility
1:50 PM
Oct 2
66 °FScattered clouds.3 mph78%30.39 "HgN/A
1:20 PM66 °FScattered clouds.2 mph78%30.39 "HgN/A
12:50 PM66 °FScattered clouds.2 mph78%30.39 "HgN/A
12:20 PM66 °FScattered clouds.5 mph78%30.39 "Hg4 mi
11:50 AM64 °FPartly sunny.2 mph83%30.39 "Hg4 mi
11:20 AM64 °FFog.2 mph88%30.39 "Hg2 mi
10:50 AM63 °FFog.3 mph88%30.39 "Hg2 mi
10:20 AM61 °FFog.2 mph94%30.39 "Hg2 mi
9:50 AM59 °FFog.3 mph100%30.39 "Hg2 mi
9:20 AM59 °FFog.2 mph100%30.39 "Hg2 mi
8:50 AM59 °FFog.2 mph94%30.36 "Hg1 mi
8:20 AM59 °FFog.2 mph94%30.36 "Hg1 mi
7:50 AM59 °FFog.1 mph94%30.36 "Hg1 mi
7:20 AM59 °FFog.3 mph94%30.36 "Hg1 mi
6:50 AM59 °FFog.3 mph100%30.36 "Hg1 mi
6:20 AM59 °FFog.3 mph100%30.36 "Hg1 mi
9:50 PM
Oct 1
57 °FFog.2 mph100%30.30 "HgN/A
9:20 PM57 °FFog.1 mph100%30.30 "Hg2 mi
8:50 PM57 °FFog.2 mph100%30.30 "Hg3 mi
8:20 PM57 °FFog.No wind100%30.30 "Hg5 mi
7:50 PM59 °FFog.No wind94%30.30 "Hg6 mi
7:20 PM59 °FFog.No wind94%30.30 "Hg4 mi
6:50 PM61 °FSunny.1 mph94%30.30 "Hg10 mi
6:20 PM63 °FSunny.1 mph88%30.30 "Hg10 mi
5:50 PM64 °FSunny.2 mph83%30.27 "Hg10 mi
5:20 PM64 °FScattered clouds.1 mph83%30.27 "HgN/A
4:50 PM66 °FScattered showers. Broken clouds.2 mph73%30.27 "HgN/A
4:20 PM66 °FBroken clouds.1 mph73%30.27 "HgN/A
3:50 PM66 °FPartly sunny.3 mph73%30.27 "HgN/A
3:20 PM66 °FPartly sunny.6 mph73%30.27 "HgN/A
2:50 PM66 °FScattered clouds.6 mph73%30.30 "HgN/A
2:20 PM68 °FScattered clouds.5 mph69%30.30 "HgN/A
Weather by CustomWeather, © 2014

See weather overviewHow to use our weather pages